Location: Sternwarte Stuttgart
(48.7670°N, 9.1830°E)
Time: 21:52:38
(UTC+02:00)

Cosmos 1076 Rocket - Pass Details

Date: 24 January 2019
Orbit: 590 x 612 km, 82.5° (Epoch: 21 October)

Event Time Altitude Azimuth Distance (km) Brightness Sun altitude
Exits shadow 06:25:40 11° 338° (NNW) 1,855 5.7 -15.9°
Maximum altitude 06:29:32 45° 267° (W) 813 3.7 -15.3°
Drops below altitude 10° 06:33:37 10° 194° (SSW) 1,931 6.1 -14.6°
Sets 06:35:52 0° 188° (S) 2,832 7.0 -14.3°
